Terminal Aerodrome Forecast
Issued by NWS

Home | Current Version | Previous Version | Text Only | Print | Product List | Glossary On
Versions: 1 2 3 4 5 6 7 8 9 10 11 12
000
FTUS45 KRIW 301700
TAFBPI
TAF
KBPI 301734Z 3018/0118 29008KT P6SM -SHRA SCT030 BKN050
     FM301900 30012G20KT P6SM -SHRA BKN030
     FM010100 33007KT P6SM SCT050=

USA.gov is the U.S. government's official web portal to all federal, state and local government web resources and services.